Starlink 34664

operational
NORAD ID: 64806 Int'l Des: 2025-150 Owner: SPXS Country: US Constellation: starlink
LEOCIRCULAR

关于 Starlink 34664

正在加载描述...

实时位置

正在加载3D地球...

即将过境

高度历史

Altitude vs Time

uPlot chart will show altitude changes over time

两行轨道根数

1 64806U 25150S 25340.79103430 .00078423 00000-0 17745-2 0 9998
2 64806 70.0007 9.7897 0002414 273.2434 86.8472 15.42741212 22576
Epoch: Dec 6, 2025 • Age: 12 hours

当前状态

高度 441.4 km
速度 7.65 km/s
星下点 -7.53°S, 14.58°E
发射日期 Jul 16, 2025
运行时间 0.3 years
类型 internet

技术详情

分类 Payload
质量 575.00 kg
干质量 530.00 kg
总质量 575.00 kg
长度 0.30 m
直径 4.10 m
跨度 29.00 m
形状 Box + pan
制造商 SPXS
平台类型 Starlink V2MO
阶段状态 In Orbit
所有者/国家 SPXS/US

大型星座

Loading constellations...